Location: Fernhill
(41.0167°S, 175.6333°E)
Time: 09:16:06
(UTC+00:00)

NOSS 3-2 (C) - Pass Details

Date: 08 November 2025
Orbit: 674 x 1535 km, 63.4° (Epoch: 13 November)

Event Time Altitude Azimuth Distance (km) Brightness Sun altitude
Rises 09:08:46 0° 214° (SW) 3,883 8.2 -19.8°
Reaches altitude 10° 09:11:43 10° 211° (SSW) 2,786 7.0 -20.2°
Maximum altitude 09:18:03 64° 129° (SE) 947 3.4 -21.0°
Enters shadow 09:19:47 42° 66° (ENE) 1,155 3.5 -21.2°
